Time,TemperatureF,DewpointF,PressureIn,WindDirection,WindDirectionDegrees,WindSpeedMPH,WindSpeedGustMPH,Humidity,HourlyPrecipIn,Conditions,Clouds,dailyrainin,SoftwareType,DateUTC
2013-01-25 00:00:00,62.6,51.1,29.90,North,0,0.0,0.0,66,0.00,,---,0.00,VWS V13.01,2013-01-25 05:00:00,
2013-01-25 00:05:00,62.4,50.9,29.90,North,0,0.0,11.9,66,0.00,,---,0.00,VWS V13.01,2013-01-25 05:05:00,
2013-01-25 00:10:00,62.4,50.9,29.90,North,0,14.1,14.1,66,0.00,,---,0.00,VWS V13.01,2013-01-25 05:10:00,
2013-01-25 00:15:00,62.4,51.3,29.90,North,0,9.6,14.1,67,0.00,,---,0.00,VWS V13.01,2013-01-25 05:15:00,
2013-01-25 00:25:00,62.4,51.3,29.90,North,0,0.0,9.6,67,0.00,,---,0.00,VWS V13.01,2013-01-25 05:25:00,
2013-01-25 00:30:00,62.4,51.3,29.90,North,0,0.0,0.0,67,0.00,,---,0.00,VWS V13.01,2013-01-25 05:30:00,
2013-01-25 00:40:00,62.4,51.3,29.90,North,0,0.0,13.6,67,0.00,,---,0.00,VWS V13.01,2013-01-25 05:40:00,
2013-01-25 00:45:00,62.2,51.2,29.90,North,0,0.0,12.8,67,0.00,,---,0.00,VWS V13.01,2013-01-25 05:45:00,
2013-01-25 00:50:00,62.4,51.3,29.90,North,0,0.0,11.9,67,0.00,,---,0.00,VWS V13.01,2013-01-25 05:50:00,
2013-01-25 01:00:00,62.4,51.3,29.90,North,0,0.0,0.0,67,0.00,,---,0.00,VWS V13.01,2013-01-25 06:00:00,
2013-01-25 01:10:00,62.2,51.2,29.89,North,0,0.0,0.0,67,0.00,,---,0.00,VWS V13.01,2013-01-25 06:10:00,
2013-01-25 01:20:00,61.9,50.8,29.89,North,0,0.0,0.0,67,0.00,,---,0.00,VWS V13.01,2013-01-25 06:20:00,
2013-01-25 01:30:00,61.5,50.9,29.89,North,0,0.0,17.7,68,0.00,,---,0.00,VWS V13.01,2013-01-25 06:30:00,
2013-01-25 01:40:00,61.5,50.9,29.89,North,0,6.0,6.0,68,0.00,,---,0.00,VWS V13.01,2013-01-25 06:40:00,
2013-01-25 01:50:00,61.2,50.9,29.89,North,0,0.0,0.0,69,0.00,,---,0.00,VWS V13.01,2013-01-25 06:50:00,
2013-01-25 01:55:00,61.0,50.8,29.89,North,0,0.0,0.0,69,0.00,,---,0.00,VWS V13.01,2013-01-25 06:55:00,
2013-01-25 02:00:00,61.0,50.8,29.89,North,0,0.0,0.0,69,0.00,,---,0.00,VWS V13.01,2013-01-25 07:00:00,
2013-01-25 02:10:00,61.0,50.8,29.89,North,0,0.0,0.0,69,0.00,,---,0.00,VWS V13.01,2013-01-25 07:10:00,
2013-01-25 02:20:00,61.0,50.8,29.89,NNW,338,15.2,15.2,69,0.00,,---,0.00,VWS V13.01,2013-01-25 07:20:00,
2013-01-25 02:25:00,61.0,50.8,29.89,NNW,338,0.0,15.2,69,0.00,,---,0.00,VWS V13.01,2013-01-25 07:25:00,
2013-01-25 02:35:00,61.0,50.8,29.89,North,0,0.0,0.0,69,0.00,,---,0.00,VWS V13.01,2013-01-25 07:35:00,
2013-01-25 02:45:00,60.6,50.4,29.89,NNW,338,18.8,18.8,69,0.00,,---,0.00,VWS V13.01,2013-01-25 07:45:00,
2013-01-25 02:55:00,60.6,50.4,29.88,NNW,338,0.0,11.2,69,0.00,,---,0.00,VWS V13.01,2013-01-25 07:55:00,
2013-01-25 03:00:00,60.6,50.4,29.89,North,0,0.4,0.4,69,0.00,,---,0.00,VWS V13.01,2013-01-25 08:00:00,
2013-01-25 03:10:00,60.6,50.4,29.88,NNW,338,0.0,0.0,69,0.00,,---,0.00,VWS V13.01,2013-01-25 08:10:00,
2013-01-25 03:15:00,60.6,50.4,29.88,NNW,338,0.0,1.8,69,0.00,,---,0.00,VWS V13.01,2013-01-25 08:15:00,
2013-01-25 03:20:00,60.6,50.4,29.88,NNW,338,0.0,0.0,69,0.00,,---,0.00,VWS V13.01,2013-01-25 08:20:00,
2013-01-25 03:30:00,60.4,50.2,29.88,North,0,1.3,1.3,69,0.00,,---,0.00,VWS V13.01,2013-01-25 08:30:00,
2013-01-25 03:40:00,60.6,50.4,29.88,NNW,338,14.5,14.5,69,0.00,,---,0.00,VWS V13.01,2013-01-25 08:40:00,
2013-01-25 03:45:00,60.6,50.0,29.87,NNW,338,0.0,14.5,68,0.00,,---,0.00,VWS V13.01,2013-01-25 08:45:00,
2013-01-25 03:55:00,60.8,50.2,29.88,NNW,338,0.0,12.1,68,0.00,,---,0.00,VWS V13.01,2013-01-25 08:55:00,
2013-01-25 04:05:00,61.0,50.4,29.88,NNW,338,0.0,0.0,68,0.00,,---,0.00,VWS V13.01,2013-01-25 09:05:00,
2013-01-25 04:15:00,61.0,50.0,29.88,NNW,338,0.0,14.1,67,0.00,,---,0.00,VWS V13.01,2013-01-25 09:15:00,
2013-01-25 04:20:00,61.0,50.0,29.88,NNW,338,0.7,0.7,67,0.00,,---,0.00,VWS V13.01,2013-01-25 09:20:00,
2013-01-25 04:25:00,60.6,49.6,29.88,NNW,338,0.2,0.7,67,0.00,,---,0.00,VWS V13.01,2013-01-25 09:25:00,
2013-01-25 04:35:00,60.6,49.6,29.88,NNW,338,4.0,4.0,67,0.00,,---,0.00,VWS V13.01,2013-01-25 09:35:00,
2013-01-25 04:45:00,60.4,49.4,29.87,North,0,0.0,6.7,67,0.00,,---,0.00,VWS V13.01,2013-01-25 09:45:00,
2013-01-25 04:55:00,60.1,49.1,29.87,NNW,338,0.7,13.6,67,0.00,,---,0.00,VWS V13.01,2013-01-25 09:55:00,
2013-01-25 05:00:00,60.1,49.1,29.87,NNW,338,1.8,1.8,67,0.00,,---,0.00,VWS V13.01,2013-01-25 10:00:00,
2013-01-25 05:10:00,60.1,48.7,29.88,NNW,338,0.0,0.9,66,0.00,,---,0.00,VWS V13.01,2013-01-25 10:10:00,
2013-01-25 05:15:00,60.1,48.7,29.88,NNW,338,0.4,0.7,66,0.00,,---,0.00,VWS V13.01,2013-01-25 10:15:00,
2013-01-25 05:25:00,60.3,48.9,29.88,North,0,5.8,5.8,66,0.00,,---,0.00,VWS V13.01,2013-01-25 10:25:00,
2013-01-25 05:35:00,60.3,48.9,29.88,NNW,338,14.3,14.3,66,0.00,,---,0.00,VWS V13.01,2013-01-25 10:35:00,
2013-01-25 05:45:00,60.4,49.0,29.88,NNW,338,8.7,14.3,66,0.00,,---,0.00,VWS V13.01,2013-01-25 10:45:00,
2013-01-25 05:50:00,60.1,48.7,29.88,NNW,338,0.0,8.7,66,0.00,,---,0.00,VWS V13.01,2013-01-25 10:50:00,
2013-01-25 06:00:00,60.1,48.7,29.89,NNW,338,0.0,0.0,66,0.00,,---,0.00,VWS V13.01,2013-01-25 11:00:00,
2013-01-25 06:10:00,60.1,48.7,29.89,NNW,338,0.0,2.7,66,0.00,,---,0.00,VWS V13.01,2013-01-25 11:10:00,
2013-01-25 06:15:00,60.1,48.7,29.89,NNW,338,0.0,0.0,66,0.00,,---,0.00,VWS V13.01,2013-01-25 11:15:00,
2013-01-25 06:20:00,60.1,48.7,29.89,NNW,338,0.0,0.0,66,0.00,,---,0.00,VWS V13.01,2013-01-25 11:20:00,
2013-01-25 06:25:00,60.1,48.7,29.89,NNW,338,0.9,0.9,66,0.00,,---,0.00,VWS V13.01,2013-01-25 11:25:00,
2013-01-25 06:35:00,60.4,49.0,29.89,North,0,13.2,13.2,66,0.00,,---,0.00,VWS V13.01,2013-01-25 11:35:00,
2013-01-25 06:40:00,60.4,49.0,29.89,North,0,11.0,13.2,66,0.00,,---,0.00,VWS V13.01,2013-01-25 11:40:00,
2013-01-25 06:50:00,60.4,49.0,29.90,NNW,338,0.0,11.0,66,0.00,,---,0.00,VWS V13.01,2013-01-25 11:50:00,
2013-01-25 07:00:00,60.6,49.2,29.89,NNW,338,0.0,0.0,66,0.00,,---,0.00,VWS V13.01,2013-01-25 12:00:00,
2013-01-25 07:05:00,60.6,49.2,29.89,NNW,338,0.0,0.0,66,0.00,,---,0.00,VWS V13.01,2013-01-25 12:05:00,
2013-01-25 07:15:00,60.6,49.2,29.90,North,0,2.0,15.0,66,0.00,,---,0.00,VWS V13.01,2013-01-25 12:15:00,
2013-01-25 07:25:00,60.6,49.2,29.90,NNW,338,13.9,13.9,66,0.00,,---,0.00,VWS V13.01,2013-01-25 12:25:00,
2013-01-25 07:35:00,60.6,49.2,29.90,NNW,338,0.0,0.0,66,0.00,,---,0.00,VWS V13.01,2013-01-25 12:35:00,
2013-01-25 07:45:00,61.2,49.3,29.91,North,0,3.4,15.2,65,0.00,,---,0.00,VWS V13.01,2013-01-25 12:45:00,
2013-01-25 07:55:00,61.0,49.2,29.91,NNW,338,0.7,17.5,65,0.00,,---,0.00,VWS V13.01,2013-01-25 12:55:00,
2013-01-25 08:00:00,61.0,49.2,29.91,NNW,338,2.2,2.2,65,0.00,,---,0.00,VWS V13.01,2013-01-25 13:00:00,
2013-01-25 08:10:00,61.5,49.2,29.91,NNW,338,2.5,2.5,64,0.00,,---,0.00,VWS V13.01,2013-01-25 13:10:00,
2013-01-25 08:20:00,61.7,49.4,29.91,NNW,338,3.6,10.1,64,0.00,,---,0.00,VWS V13.01,2013-01-25 13:20:00,
2013-01-25 08:30:00,62.1,49.3,29.91,North,0,5.1,5.1,63,0.00,,---,0.00,VWS V13.01,2013-01-25 13:30:00,
2013-01-25 08:40:00,62.8,50.4,29.91,NNW,338,6.0,16.3,64,0.00,,---,0.00,VWS V13.01,2013-01-25 13:40:00,
2013-01-25 08:45:00,63.5,50.3,29.92,NNW,338,4.3,6.0,62,0.00,,---,0.00,VWS V13.01,2013-01-25 13:45:00,
2013-01-25 08:55:00,64.9,50.7,29.92,NNW,338,1.1,6.7,60,0.00,,---,0.00,VWS V13.01,2013-01-25 13:55:00,
2013-01-25 09:05:00,65.8,51.1,29.92,North,0,0.0,6.7,59,0.00,,---,0.00,VWS V13.01,2013-01-25 14:05:00,
2013-01-25 09:15:00,66.7,51.0,29.93,North,0,5.6,7.2,57,0.00,,---,0.00,VWS V13.01,2013-01-25 14:15:00,
2013-01-25 09:20:00,66.7,51.0,29.93,North,0,5.6,5.6,57,0.00,,---,0.00,VWS V13.01,2013-01-25 14:20:00,
2013-01-25 09:30:00,66.9,51.2,29.93,NNE,22,3.6,4.0,57,0.00,,---,0.00,VWS V13.01,2013-01-25 14:30:00,
2013-01-25 09:35:00,66.9,51.2,29.93,NNE,22,3.6,3.6,57,0.00,,---,0.00,VWS V13.01,2013-01-25 14:35:00,
2013-01-25 09:45:00,68.7,50.9,29.93,North,0,7.6,9.0,53,0.00,,---,0.00,VWS V13.01,2013-01-25 14:45:00,
2013-01-25 09:50:00,68.9,51.1,29.94,North,0,6.7,7.6,53,0.00,,---,0.00,VWS V13.01,2013-01-25 14:50:00,
2013-01-25 10:00:00,69.4,51.6,29.94,NE,45,7.8,7.8,53,0.00,,---,0.00,VWS V13.01,2013-01-25 15:00:00,
2013-01-25 10:05:00,69.4,51.6,29.94,NE,45,7.8,7.8,53,0.00,,---,0.00,VWS V13.01,2013-01-25 15:05:00,
2013-01-25 10:15:00,70.9,52.9,29.93,NE,45,3.1,12.1,53,0.00,,---,0.00,VWS V13.01,2013-01-25 15:15:00,
2013-01-25 10:25:00,71.8,53.8,29.93,NNE,22,0.0,2.7,53,0.00,,---,0.00,VWS V13.01,2013-01-25 15:25:00,
2013-01-25 10:30:00,72.1,53.6,29.93,North,0,3.4,3.4,52,0.00,,---,0.00,VWS V13.01,2013-01-25 15:30:00,
2013-01-25 10:40:00,72.7,54.6,29.93,ENE,68,2.5,2.5,53,0.00,,---,0.00,VWS V13.01,2013-01-25 15:40:00,
2013-01-25 10:50:00,73.2,54.6,29.93,NNE,22,7.8,7.8,52,0.00,,---,0.00,VWS V13.01,2013-01-25 15:50:00,
2013-01-25 10:55:00,73.6,54.9,29.93,North,0,4.0,7.8,52,0.00,,---,0.00,VWS V13.01,2013-01-25 15:55:00,
2013-01-25 11:05:00,74.3,55.6,29.92,North,0,3.4,3.4,52,0.00,,---,0.00,VWS V13.01,2013-01-25 16:05:00,
2013-01-25 11:15:00,74.8,56.0,29.92,NE,45,2.5,2.5,52,0.00,,---,0.00,VWS V13.01,2013-01-25 16:15:00,
2013-01-25 11:25:00,75.4,56.5,29.92,NE,45,11.0,11.0,52,0.00,,---,0.00,VWS V13.01,2013-01-25 16:25:00,
2013-01-25 11:35:00,75.4,57.1,29.92,NE,45,6.9,6.9,53,0.00,,---,0.00,VWS V13.01,2013-01-25 16:35:00,
2013-01-25 11:45:00,75.2,57.4,29.91,NE,45,6.3,6.3,54,0.00,,---,0.00,VWS V13.01,2013-01-25 16:45:00,
2013-01-25 11:50:00,75.2,57.4,29.91,NE,45,6.3,6.3,54,0.00,,---,0.00,VWS V13.01,2013-01-25 16:50:00,
2013-01-25 11:55:00,75.0,57.8,29.91,ENE,68,0.9,6.3,55,0.00,,---,0.00,VWS V13.01,2013-01-25 16:55:00,
2013-01-25 12:05:00,75.4,57.6,29.91,East,90,5.1,5.1,54,0.00,,---,0.00,VWS V13.01,2013-01-25 17:05:00,
2013-01-25 12:15:00,75.6,58.3,29.90,NNE,22,2.0,4.9,55,0.00,,---,0.00,VWS V13.01,2013-01-25 17:15:00,
2013-01-25 12:25:00,75.7,59.0,29.90,NE,45,3.1,7.2,56,0.00,,---,0.00,VWS V13.01,2013-01-25 17:25:00,
2013-01-25 12:35:00,75.9,59.1,29.89,ENE,68,4.7,7.4,56,0.00,,---,0.00,VWS V13.01,2013-01-25 17:35:00,
2013-01-25 12:45:00,76.3,58.9,29.89,NE,45,4.0,4.5,55,0.00,,---,0.00,VWS V13.01,2013-01-25 17:45:00,
2013-01-25 12:55:00,76.3,59.5,29.88,ENE,68,2.2,4.7,56,0.00,,---,0.00,VWS V13.01,2013-01-25 17:55:00,
2013-01-25 13:05:00,76.3,59.5,29.87,NE,45,0.0,5.8,56,0.00,,---,0.00,VWS V13.01,2013-01-25 18:05:00,
2013-01-25 13:10:00,76.3,59.5,29.87,NE,45,10.1,10.3,56,0.00,,---,0.00,VWS V13.01,2013-01-25 18:10:00,
2013-01-25 13:20:00,76.3,59.5,29.86,North,0,6.3,10.1,56,0.00,,---,0.00,VWS V13.01,2013-01-25 18:20:00,
2013-01-25 13:30:00,76.3,59.5,29.86,ENE,68,5.6,7.6,56,0.00,,---,0.00,VWS V13.01,2013-01-25 18:30:00,
2013-01-25 13:35:00,76.3,59.5,29.86,North,0,1.3,6.9,56,0.00,,---,0.00,VWS V13.01,2013-01-25 18:35:00,
2013-01-25 13:45:00,76.6,59.8,29.85,NE,45,4.3,5.4,56,0.00,,---,0.00,VWS V13.01,2013-01-25 18:45:00,
2013-01-25 13:55:00,76.5,59.6,29.85,WNW,292,10.3,10.3,56,0.00,,---,0.00,VWS V13.01,2013-01-25 18:55:00,
2013-01-25 14:05:00,76.3,59.5,29.85,WSW,248,0.0,6.0,56,0.00,,---,0.00,VWS V13.01,2013-01-25 19:05:00,
2013-01-25 14:15:00,76.3,59.5,29.85,WSW,248,4.0,4.0,56,0.00,,---,0.00,VWS V13.01,2013-01-25 19:15:00,
2013-01-25 14:20:00,76.3,59.5,29.84,WSW,248,4.0,4.0,56,0.00,,---,0.00,VWS V13.01,2013-01-25 19:20:00,
2013-01-25 14:30:00,76.1,59.3,29.84,WSW,248,4.7,4.7,56,0.00,,---,0.00,VWS V13.01,2013-01-25 19:30:00,
2013-01-25 14:40:00,76.6,58.2,29.84,WSW,248,2.0,6.7,53,0.00,,---,0.00,VWS V13.01,2013-01-25 19:40:00,
2013-01-25 14:50:00,76.8,57.9,29.83,WSW,248,0.4,6.0,52,0.00,,---,0.00,VWS V13.01,2013-01-25 19:50:00,
2013-01-25 15:00:00,77.0,57.5,29.83,WSW,248,1.3,1.3,51,0.00,,---,0.00,VWS V13.01,2013-01-25 20:00:00,
2013-01-25 15:10:00,76.8,56.8,29.83,WSW,248,6.7,8.3,50,0.00,,---,0.00,VWS V13.01,2013-01-25 20:10:00,
2013-01-25 15:20:00,76.5,55.9,29.83,WSW,248,5.6,5.6,49,0.00,,---,0.00,VWS V13.01,2013-01-25 20:20:00,
2013-01-25 15:25:00,76.3,55.7,29.83,WSW,248,0.7,5.6,49,0.00,,---,0.00,VWS V13.01,2013-01-25 20:25:00,
2013-01-25 15:30:00,76.3,56.3,29.83,ENE,68,2.7,2.7,50,0.00,,---,0.00,VWS V13.01,2013-01-25 20:30:00,
2013-01-25 15:40:00,76.3,56.3,29.83,ENE,68,4.9,6.9,50,0.00,,---,0.00,VWS V13.01,2013-01-25 20:40:00,
2013-01-25 15:50:00,76.3,56.3,29.83,WSW,248,3.4,4.3,50,0.00,,---,0.00,VWS V13.01,2013-01-25 20:50:00,
2013-01-25 15:55:00,76.3,56.8,29.82,WSW,248,0.4,3.4,51,0.00,,---,0.00,VWS V13.01,2013-01-25 20:55:00,
2013-01-25 16:05:00,76.3,56.8,29.83,WSW,248,5.1,5.1,51,0.00,,---,0.00,VWS V13.01,2013-01-25 21:05:00,
2013-01-25 16:10:00,75.9,56.0,29.83,WSW,248,4.3,5.1,50,0.00,,---,0.00,VWS V13.01,2013-01-25 21:10:00,
2013-01-25 16:20:00,75.9,56.5,29.83,WSW,248,4.3,5.4,51,0.00,,---,0.00,VWS V13.01,2013-01-25 21:20:00,
2013-01-25 16:30:00,75.6,56.2,29.83,ENE,68,2.9,3.6,51,0.00,,---,0.00,VWS V13.01,2013-01-25 21:30:00,
2013-01-25 16:40:00,75.7,56.3,29.83,WSW,248,0.7,2.0,51,0.00,,---,0.00,VWS V13.01,2013-01-25 21:40:00,
2013-01-25 16:50:00,75.0,55.7,29.84,WSW,248,0.9,4.3,51,0.00,,---,0.00,VWS V13.01,2013-01-25 21:50:00,
2013-01-25 17:00:00,75.0,55.7,29.84,WSW,248,0.4,0.4,51,0.00,,---,0.00,VWS V13.01,2013-01-25 22:00:00,
2013-01-25 17:10:00,75.0,56.2,29.84,WSW,248,6.0,6.0,52,0.00,,---,0.00,VWS V13.01,2013-01-25 22:10:00,
2013-01-25 17:20:00,74.5,55.7,29.84,ENE,68,0.4,1.3,52,0.00,,---,0.00,VWS V13.01,2013-01-25 22:20:00,
2013-01-25 17:25:00,74.5,56.2,29.84,ENE,68,1.6,1.6,53,0.00,,---,0.00,VWS V13.01,2013-01-25 22:25:00,
2013-01-25 17:35:00,74.1,55.9,29.84,ENE,68,2.7,2.7,53,0.00,,---,0.00,VWS V13.01,2013-01-25 22:35:00,
2013-01-25 17:40:00,73.9,56.3,29.84,East,90,2.5,4.0,54,0.00,,---,0.00,VWS V13.01,2013-01-25 22:40:00,
2013-01-25 17:50:00,73.2,55.6,29.84,East,90,1.3,3.4,54,0.00,,---,0.00,VWS V13.01,2013-01-25 22:50:00,
2013-01-25 18:00:00,73.0,55.9,29.84,East,90,0.0,2.7,55,0.00,,---,0.00,VWS V13.01,2013-01-25 23:00:00,
2013-01-25 18:10:00,72.7,55.6,29.84,ENE,68,6.9,6.9,55,0.00,,---,0.00,VWS V13.01,2013-01-25 23:10:00,
2013-01-25 18:20:00,72.5,55.9,29.85,East,90,0.0,0.0,56,0.00,,---,0.00,VWS V13.01,2013-01-25 23:20:00,
2013-01-25 18:30:00,72.0,55.4,29.84,East,90,0.4,3.1,56,0.00,,---,0.00,VWS V13.01,2013-01-25 23:30:00,
2013-01-25 18:40:00,71.8,55.3,29.84,ESE,112,22.2,22.2,56,0.00,,---,0.00,VWS V13.01,2013-01-25 23:40:00,
2013-01-25 18:45:00,71.8,55.3,29.84,ESE,112,22.2,22.2,56,0.00,,---,0.00,VWS V13.01,2013-01-25 23:45:00,
2013-01-25 18:55:00,71.4,55.4,29.85,ESE,112,22.4,22.4,57,0.00,,---,0.00,VWS V13.01,2013-01-25 23:55:00,
2013-01-25 19:05:00,71.2,55.7,29.85,ESE,112,22.6,23.3,58,0.00,,---,0.00,VWS V13.01,2013-01-26 00:05:00,
2013-01-25 19:10:00,71.2,55.7,29.85,ESE,112,22.6,22.6,58,0.00,,---,0.00,VWS V13.01,2013-01-26 00:10:00,
2013-01-25 19:20:00,71.1,55.5,29.85,ESE,112,1.8,22.4,58,0.00,,---,0.00,VWS V13.01,2013-01-26 00:20:00,
2013-01-25 19:30:00,70.9,55.8,29.85,ENE,68,1.1,1.1,59,0.00,,---,0.00,VWS V13.01,2013-01-26 00:30:00,
2013-01-25 19:35:00,70.9,55.8,29.85,East,90,0.0,1.1,59,0.00,,---,0.00,VWS V13.01,2013-01-26 00:35:00,
2013-01-25 19:45:00,70.7,55.7,29.85,East,90,19.2,21.9,59,0.00,,---,0.00,VWS V13.01,2013-01-26 00:45:00,
2013-01-25 19:55:00,70.5,55.5,29.85,ESE,112,19.2,19.2,59,0.00,,---,0.00,VWS V13.01,2013-01-26 00:55:00,
2013-01-25 20:05:00,70.3,55.3,29.85,ESE,112,19.7,19.7,59,0.00,,---,0.00,VWS V13.01,2013-01-26 01:05:00,
2013-01-25 20:15:00,70.0,55.5,29.85,ESE,112,18.3,18.3,60,0.00,,---,0.00,VWS V13.01,2013-01-26 01:15:00,
2013-01-25 20:25:00,69.8,55.8,29.85,ESE,112,16.3,16.3,61,0.00,,---,0.00,VWS V13.01,2013-01-26 01:25:00,
2013-01-25 20:35:00,69.6,56.0,29.85,ESE,112,18.1,18.3,62,0.00,,---,0.00,VWS V13.01,2013-01-26 01:35:00,
2013-01-25 20:40:00,69.6,56.0,29.85,ESE,112,22.2,22.2,62,0.00,,---,0.00,VWS V13.01,2013-01-26 01:40:00,
2013-01-25 20:45:00,69.4,55.9,29.85,ESE,112,18.8,22.2,62,0.00,,---,0.00,VWS V13.01,2013-01-26 01:45:00,
2013-01-25 20:55:00,69.4,56.3,29.85,ESE,112,18.8,19.9,63,0.00,,---,0.00,VWS V13.01,2013-01-26 01:55:00,
2013-01-25 21:05:00,69.1,56.0,29.86,NW,315,0.0,24.4,63,0.00,,---,0.00,VWS V13.01,2013-01-26 02:05:00,
2013-01-25 21:10:00,69.1,56.0,29.86,NW,315,16.6,23.3,63,0.00,,---,0.00,VWS V13.01,2013-01-26 02:10:00,
2013-01-25 21:20:00,68.9,56.2,29.86,North,0,20.1,20.1,64,0.00,,---,0.00,VWS V13.01,2013-01-26 02:20:00,
2013-01-25 21:30:00,68.9,56.2,29.86,NNW,338,14.5,17.7,64,0.00,,---,0.00,VWS V13.01,2013-01-26 02:30:00,
2013-01-25 21:40:00,68.5,55.9,29.86,NNW,338,5.6,14.5,64,0.00,,---,0.00,VWS V13.01,2013-01-26 02:40:00,
2013-01-25 21:50:00,68.5,56.3,29.86,NW,315,19.9,23.9,65,0.00,,---,0.00,VWS V13.01,2013-01-26 02:50:00,
2013-01-25 22:00:00,68.4,56.2,29.86,NW,315,24.4,24.4,65,0.00,,---,0.00,VWS V13.01,2013-01-26 03:00:00,
2013-01-25 22:05:00,68.4,56.2,29.86,NW,315,24.4,24.4,65,0.00,,---,0.00,VWS V13.01,2013-01-26 03:05:00,
2013-01-25 22:15:00,68.2,56.4,29.86,NW,315,12.8,12.8,66,0.00,,---,0.00,VWS V13.01,2013-01-26 03:15:00,
2013-01-25 22:25:00,68.2,56.8,29.86,NW,315,19.5,19.5,67,0.00,,---,0.00,VWS V13.01,2013-01-26 03:25:00,
2013-01-25 22:35:00,68.2,56.8,29.86,NW,315,20.1,20.8,67,0.00,,---,0.00,VWS V13.01,2013-01-26 03:35:00,
2013-01-25 22:45:00,68.2,56.8,29.86,NNW,338,0.7,18.8,67,0.00,,---,0.00,VWS V13.01,2013-01-26 03:45:00,
2013-01-25 22:55:00,68.0,56.7,29.86,NNW,338,16.8,22.4,67,0.00,,---,0.00,VWS V13.01,2013-01-26 03:55:00,
2013-01-25 23:00:00,67.8,56.5,29.86,NNW,338,22.2,22.2,67,0.00,,---,0.00,VWS V13.01,2013-01-26 04:00:00,
2013-01-25 23:10:00,68.0,56.7,29.86,NNW,338,18.6,18.6,67,0.00,,---,0.00,VWS V13.01,2013-01-26 04:10:00,
2013-01-25 23:15:00,67.8,56.5,29.86,NNW,338,0.0,26.0,67,0.00,,---,0.00,VWS V13.01,2013-01-26 04:15:00,
2013-01-25 23:20:00,67.8,56.5,29.86,NNW,338,0.0,0.0,67,0.00,,---,0.00,VWS V13.01,2013-01-26 04:20:00,
2013-01-25 23:30:00,67.6,56.7,29.86,NNW,338,21.7,21.7,68,0.00,,---,0.00,VWS V13.01,2013-01-26 04:30:00,
2013-01-25 23:40:00,67.3,56.4,29.86,NNW,338,0.0,16.3,68,0.00,,---,0.00,VWS V13.01,2013-01-26 04:40:00,
2013-01-25 23:50:00,66.9,56.0,29.86,NNW,338,20.6,20.6,68,0.00,,---,0.00,VWS V13.01,2013-01-26 04:50:00,